EW8375 Weather Reports


time (UTC)temp
C
wind
direction
speed
KPH
gust
KPH
rain 1hr
cm
rain 24hr
cm
rain mn
cm
humidity
%
barometer
mb
20260504210036 12 131 0.0 4.8 0.25 0.25 0.25 64 999.3
20260504204525 13 131 8.0 20.9 0.23 0.23 0.23 52 999.3
20260504203030 17 131 6.4 33.8 0.00 0.00 0.00 32 999.0
20260504201521 20 131 0.0 6.4 0.00 0.00 0.00 23 997.6
20260504200021 21 131 4.8 16.1 0.00 0.00 0.00 23 997.2
20260504194532 21 131 6.4 29.0 0.00 0.00 0.00 23 997.1
20260504193020 22 131 8.0 20.9 0.00 0.00 0.00 23 997.2
20260504191518 23 131 4.8 14.5 0.00 0.00 0.00 19 997.3
20260504190017 24 131 1.6 8.0 0.00 0.00 0.00 19 997.4
20260504184514 24 131 3.2 9.7 0.00 0.00 0.00 20 997.5
20260504183012 23 131 3.2 9.7 0.00 0.00 0.00 20 997.9
20260504181506 22 131 1.6 9.7 0.00 0.00 0.00 22 998.1
20260504180002 21 131 1.6 11.3 0.00 0.00 0.00 24 998.3
20260504174558 20 131 3.2 14.5 0.00 0.00 0.00 25 998.6
20260504173110 19 131 6.4 14.5 0.00 0.00 0.00 26 998.9
20260504171550 18 131 8.0 16.1 0.00 0.00 0.00 27 999.1
20260504081551 9 131 0.0 1.6 0.00 0.00 0.00 36 1000.0
20260504044531 12 131 4.8 12.9 0.00 0.00 0.00 31 1001.4
20260504043028 13 131 0.0 3.2 0.00 0.00 0.00 29 1000.8
20260504041526 15 131 0.0 6.4 0.00 0.00 0.00 27 1000.9
20260504040030 15 131 3.2 8.0 0.00 0.00 0.00 26 1001.0
20260504034538 15 131 1.6 8.0 0.00 0.00 0.00 26 1001.2
20260504033030 16 131 1.6 8.0 0.00 0.00 0.00 25 1001.1
20260504031525 16 131 1.6 6.4 0.00 0.00 0.00 25 1001.1
20260504030036 17 131 1.6 9.7 0.00 0.00 0.00 24 1000.9
20260504024524 17 131 3.2 9.7 0.00 0.00 0.00 23 1000.9
20260504023023 17 131 4.8 12.9 0.00 0.00 0.00 23 1000.7
20260504021523 17 131 3.2 8.0 0.00 0.00 0.00 23 1000.7
20260504020022 17 131 0.0 1.6 0.00 0.00 0.00 22 1000.6
20260504014524 18 131 0.0 3.2 0.00 0.00 0.00 22 1000.6
20260504013023 18 131 0.0 6.4 0.00 0.00 0.00 21 1000.5
20260504011522 19 131 0.0 6.4 0.00 0.00 0.00 21 1000.5
20260504010019 20 131 0.0 3.2 0.00 0.00 0.00 21 1000.7
20260504004520 20 131 0.0 9.7 0.00 0.00 0.00 21 1001.0
20260504003015 20 131 3.2 14.5 0.00 0.00 0.00 20 1001.1
20260504001515 21 131 3.2 16.1 0.00 0.00 0.00 19 1001.1
20260504000015 21 131 3.2 9.7 0.00 0.00 0.00 20 1001.1
20260503234513 21 131 0.0 11.3 0.00 0.00 0.00 20 1001.1
20260503233012 21 131 6.4 22.5 0.00 0.00 0.00 20 1001.3
20260503231516 21 131 8.0 29.0 0.00 0.00 0.00 18 1001.4
20260503230012 23 131 0.0 12.9 0.00 0.00 0.00 17 1001.1
20260503224509 22 131 6.4 20.9 0.00 0.00 0.00 15 1001.2
20260503223017 21 131 0.0 9.7 0.00 0.00 0.00 18 1001.4
20260503221507 22 131 0.0 9.7 0.00 0.00 0.00 16 1001.4
20260503220009 23 131 0.0 11.3 0.00 0.00 0.00 16 1001.8
20260503214504 22 131 1.6 11.3 0.00 0.00 0.00 17 1002.1
20260503213003 22 131 0.0 6.4 0.00 0.00 0.00 15 1002.1
20260503211502 22 131 0.0 8.0 0.00 0.00 0.00 14 1002.1